East Taunton, MA

4:51 PM EST on February 25, 2017 (GMT -0500)
Taunton Municipal

Weather History for KTAN - January, 2013

Change the Weather History Date:

Wednesday, January 2, 2013

  Actual Average Record
Temperature  
Mean Temperature 23 °F -  
Max Temperature 32 °F 37 °F 59 °F (1979)
Min Temperature 14 °F 18 °F -7 °F (1968)
Degree Days  
Heating Degree Days 42    
Moisture  
Dew Point 7 °F    
Average Humidity 52    
Maximum Humidity 68    
Minimum Humidity 42    
Precipitation  
Precipitation 0.00 in - - ()
Sea Level Pressure  
Sea Level Pressure 29.97 in    
Wind  
Wind Speed 6 mph (WNW)    
Max Wind Speed 13 mph    
Max Gust Speed 22 mph    
Visibility 10 miles    
Events      
Averages and records for this station are not official NWS values.
T = Trace of Precipitation, MM = Missing Value Source: NWS Daily Summary

Daily Weather History Graph

Daily Weather History Graph

Search for Another Location

Airport or City:

Trip Planner

Search our weather history database for the weather conditions in past years. The results will help you decide how hot, cold, wet, or windy it might be!

Date:

Astronomy

Jan. 02, 2013 Rise Set
Actual Time 7:11 AM EST 4:24 PM EST
Civil Twilight 6:40 AM EST 4:56 PM EST
Nautical Twilight 6:05 AM EST 5:31 PM EST
Astronomical Twilight 5:31 AM EST 6:05 PM EST
Moon 9:59 PM EST (1/2) 9:47 AM EST (1/2)
Length of Visible Light 10h 15m
Length of Day
9h 13m
Waning Gibbous, 75% of the Moon is Illuminated
Jan 2
Waning Gibbous
Jan 4
Last Quarter
Jan 11
New
Jan 18
First Quarter
Jan 26
Full

Hourly Weather History & Observations

Time (EST) Temp. Windchill Dew Point Humidity Pressure Visibility Wind Dir Wind Speed Gust Speed Precip Events Conditions
12:52 AM 21.9 °F 15.7 °F 8.1 °F 55% 29.92 in 10.0 mi West 4.6 mph - N/A   Clear
1:52 AM 19.9 °F 13.4 °F 3.9 °F 50% 29.94 in 10.0 mi WNW 4.6 mph - N/A   Clear
2:52 AM 19.0 °F 10.0 °F 3.0 °F 50% 29.96 in 10.0 mi WNW 6.9 mph - N/A   Clear
4:52 AM 14.0 °F 8.2 °F 3.9 °F 64% 29.94 in 10.0 mi WSW 3.5 mph - N/A   Clear
5:52 AM 14.0 °F 8.2 °F 3.9 °F 64% 29.95 in 10.0 mi West 3.5 mph - N/A   Clear
6:52 AM 15.1 °F 7.7 °F 5.0 °F 64% 29.95 in 10.0 mi WSW 4.6 mph - N/A   Clear
7:52 AM 15.1 °F - 6.1 °F 68% 29.95 in 10.0 mi Calm Calm - N/A   Clear
8:52 AM 19.0 °F 12.3 °F 6.1 °F 57% 29.95 in 10.0 mi West 4.6 mph - N/A   Clear
10:52 AM 27.0 °F 17.3 °F 8.1 °F 45% 29.95 in 10.0 mi West 10.4 mph 18.4 mph N/A   Clear
11:52 AM 28.9 °F 19.2 °F 10.0 °F 45% 29.93 in 10.0 mi WNW 11.5 mph 19.6 mph N/A   Clear
12:52 PM 30.9 °F 22.8 °F 12.0 °F 46% 29.91 in 10.0 mi West 9.2 mph - N/A   Clear
1:52 PM 32.0 °F 22.5 °F 10.9 °F 42% 29.91 in 10.0 mi West 12.7 mph 21.9 mph N/A   Partly Cloudy
2:52 PM 30.9 °F 22.8 °F 10.9 °F 43% 29.94 in 10.0 mi WNW 9.2 mph - N/A   Overcast
3:52 PM 30.0 °F 21.1 °F 10.9 °F 45% 29.97 in 10.0 mi WNW 10.4 mph - N/A   Mostly Cloudy
4:52 PM 28.0 °F 20.0 °F 8.1 °F 43% 29.99 in 10.0 mi NW 8.1 mph 18.4 mph N/A   Clear
5:52 PM 27.0 °F 18.7 °F 8.1 °F 45% 30.01 in 10.0 mi NW 8.1 mph - N/A   Clear
6:52 PM 25.0 °F 20.7 °F 10.0 °F 53% 30.04 in 10.0 mi WNW 3.5 mph - N/A   Clear
7:52 PM 23.0 °F 15.8 °F 10.0 °F 58% 30.04 in 10.0 mi West 5.8 mph - N/A   Clear
8:52 PM 23.0 °F 14.7 °F 9.0 °F 55% 30.05 in 10.0 mi NNW 6.9 mph - N/A   Clear
9:52 PM 21.0 °F 12.4 °F 7.0 °F 55% 30.06 in 10.0 mi WNW 6.9 mph - N/A   Clear
11:52 PM 18.0 °F 7.7 °F 1.0 °F 48% 30.09 in 10.0 mi NW 8.1 mph - N/A   Clear